[[{"header":{"parameterUnit":"m.s-1","parameterCategory":1,"la1":30.2991,"la2":30.254,"lo1":-89.0895,"lo2":-89.0444,"dy":0.0017,"dx":0.0017,"nx":28,"ny":28,"refTime":"2025-05-27T21:00:00:Z","depth":0,"parameterNumber":2,"parameterNumberName":"U-component_of_WINDS"},"data":[0,0,0,0,0,0,0,0,0,0,0,0,0,0,0,0,0,0,0,0,0,0,0,0,0,0,0,0,0,0,0,0,0,0,0,0,0,0,0,0,0,0,0,0,0,0,0,0,0,0,0,0,0,0,0,0,0,0,-0.7865,-0.7864,0,-0.7765,-0.7764,-0.7763,-0.7706,-0.7706,-0.7706,-0.7706,-0.76,-0.7598,-0.7595,0,0,0,0,0,0,0,0,0,0,0,0,0,-0.8001,-0.7999,-0.7865,-0.7864,-0.7863,-0.7766,-0.7764,-0.7763,-0.7706,-0.7706,-0.7706,-0.7706,-0.7601,-0.7598,-0.7595,0,0,0,0,0,0,0,0,0,0,0,0,0,-0.7926,-0.7998,-0.7865,-0.7823,-0.7818,-0.7766,-0.7764,-0.7762,-0.7706,-0.7706,-0.7706,-0.7705,-0.7602,-0.7598,-0.7594,-0.7576,0,0,-0.7582,-0.758,0,0,0,0,0,0,0,0,-0.793,-0.7921,-0.783,-0.7826,-0.782,-0.7748,-0.7773,-0.77,-0.7706,-0.7749,-0.7706,-0.7705,-0.7649,-0.7641,-0.7623,-0.7571,-0.7566,-0.7582,-0.7579,-0.7578,-0.7577,0,0,0,0,0,0,0,-0.7935,-0.7925,-0.7825,-0.7829,-0.7823,-0.7807,-0.7796,-0.7759,-0.7702,-0.7745,-0.7741,-0.773,-0.7646,-0.7627,-0.762,-0.7565,-0.7582,-0.7578,-0.7576,-0.7574,-0.7488,-0.7488,0,0,0,0,0,0,-0.7948,-0.793,-0.7829,-0.7823,-0.7876,-0.7805,-0.7792,-0.7771,-0.7702,-0.7691,-0.773,-0.7727,-0.7634,-0.7625,-0.7616,-0.7588,-0.7578,-0.7574,-0.7572,-0.7488,-0.7488,-0.7488,0,0,0,0,0,0,-0.7951,-0.794,-0.7833,-0.7875,-0.786,-0.7803,-0.778,-0.777,-0.775,-0.7691,-0.768,-0.7721,-0.7634,-0.7622,-0.7586,-0.7584,-0.7572,-0.7569,-0.7488,-0.7488,-0.7488,-0.7533,0,0,0,0,0,0,-0.7955,-0.7941,-0.7935,-0.7875,-0.7858,-0.7806,-0.7779,-0.7768,-0.7744,-0.774,-0.768,-0.7669,-0.7632,-0.7592,-0.7582,-0.7578,-0.7566,-0.7488,-0.7488,-0.7488,-0.7531,-0.7535,-0.7537,0,0,0,0,0,-0.796,-0.7951,-0.7935,-0.7923,-0.7849,-0.7806,-0.7796,-0.7754,-0.7744,-0.7736,-0.7698,-0.7671,-0.7586,-0.7589,-0.7577,-0.7572,-0.7488,-0.7488,-0.7488,-0.753,-0.7534,-0.7537,0,0,0,0,0,0,-0.8011,-0.7943,-0.7924,-0.7895,-0.7857,-0.7796,-0.7785,-0.776,-0.7723,-0.772,-0.7669,-0.7656,-0.7624,-0.7594,-0.7599,-0.7549,-0.7534,-0.7532,-0.757,-0.7573,-0.7576,-0.7583,-0.7562,0,0,0,0,0,-0.802,-0.7991,-0.7932,-0.7912,-0.7894,-0.7843,-0.7823,-0.7794,-0.7752,-0.7735,-0.7693,-0.7652,-0.7615,-0.7592,-0.7556,-0.7527,-0.7511,-0.7517,-0.752,-0.7523,-0.7521,-0.7501,-0.7503,-0.7489,-0.7489,-0.7489,0,0,-0.8036,-0.7995,-0.798,-0.7922,-0.7888,-0.7858,-0.783,-0.78,-0.7776,-0.773,-0.7693,-0.7661,-0.7611,-0.7578,-0.7561,-0.7552,-0.7522,-0.7523,-0.7526,-0.7523,-0.7502,-0.7503,-0.7504,-0.7489,-0.7489,-0.7489,0,0,-0.8049,-0.8017,-0.7996,-0.7963,-0.7913,-0.7879,-0.7874,-0.7816,-0.7793,-0.7756,-0.7719,-0.769,-0.7629,-0.7594,-0.7569,-0.7567,-0.754,-0.7556,-0.7572,-0.7553,-0.7554,-0.7554,-0.7552,-0.7552,-0.7555,-0.7555,-0.7555,0,-0.8075,-0.8031,-0.7988,-0.7959,-0.7934,-0.7891,-0.7868,-0.7837,-0.7778,-0.776,-0.7751,-0.7672,-0.7635,-0.7592,-0.7592,-0.7573,-0.7564,-0.7563,-0.7557,-0.7557,-0.7557,-0.7555,-0.7554,-0.7557,-0.7557,-0.7557,-0.7557,0,-0.8064,-0.8033,-0.8022,-0.7966,-0.7939,-0.7914,-0.7865,-0.7843,-0.7816,-0.7782,-0.7743,-0.7697,-0.7649,-0.7637,-0.7611,-0.7589,-0.7585,-0.7567,-0.7551,-0.7562,-0.7558,-0.7557,-0.756,-0.756,-0.7559,-0.7558,0,0,-0.8108,-0.8028,-0.8024,-0.7997,-0.7938,-0.7913,-0.7884,-0.7838,-0.7819,-0.7779,-0.7752,-0.77,-0.7683,-0.7654,-0.7623,-0.7606,-0.7605,-0.759,-0.7588,-0.7593,-0.7577,-0.759,-0.759,-0.7588,-0.7587,-0.7587,-0.7581,0,-0.8112,-0.806,-0.802,-0.7983,-0.7952,-0.791,-0.7884,-0.7844,-0.7811,-0.7779,-0.7742,-0.7706,-0.7686,-0.7668,-0.765,-0.761,-0.7601,-0.761,-0.756,-0.7559,-0.7574,-0.7588,-0.7602,-0.7599,-0.7579,-0.7579,-0.7579,0,-0.811,-0.8072,-0.8032,-0.7975,-0.796,-0.7939,-0.7892,-0.7863,-0.7815,-0.7792,-0.7759,-0.7727,-0.7692,-0.7679,-0.763,-0.7636,-0.7613,-0.759,-0.7589,-0.7582,-0.7569,-0.7581,-0.7597,-0.7596,-0.7576,-0.7576,-0.7577,0,-0.8144,-0.8083,-0.805,-0.8029,-0.7962,-0.7947,-0.7918,-0.787,-0.7845,-0.7803,-0.7786,-0.7741,-0.7716,-0.7681,-0.7636,-0.7631,-0.759,-0.7574,-0.7568,-0.7569,-0.7561,-0.7562,-0.7573,-0.7548,-0.7548,-0.7548,-0.7548,0,-0.8153,-0.813,-0.8065,-0.8045,-0.8017,-0.7969,-0.7942,-0.7909,-0.7867,-0.7838,-0.7798,-0.7772,-0.7715,-0.768,-0.7645,-0.7608,-0.7597,-0.7576,-0.7567,-0.7579,-0.7582,-0.7563,-0.7562,-0.7548,-0.7548,-0.7548,-0.7548,0,-0.8186,-0.8142,-0.8104,-0.8043,-0.8027,-0.8009,-0.7955,-0.7933,-0.7897,-0.7861,-0.785,-0.7793,-0.7751,-0.7703,-0.7644,-0.762,-0.7585,-0.7572,-0.7602,-0.7596,-0.7593,-0.7593,-0.7591,-0.7587,-0.7567,-0.7567,-0.7567,0,-0.8194,-0.8175,-0.8112,-0.8091,-0.8063,-0.8029,-0.8002,-0.7954,-0.7928,-0.7871,-0.7855,-0.781,-0.7771,-0.7705,-0.7657,-0.7612,-0.7597,-0.7599,-0.7589,-0.7602,-0.7595,-0.7596,-0.7593,-0.7601,-0.7602,-0.7602,-0.7603,0,-0.8212,-0.8191,-0.8155,-0.8111,-0.8081,-0.8044,-0.8005,-0.7989,-0.7933,-0.7905,-0.7861,-0.7831,-0.7771,-0.7726,-0.7674,-0.7641,-0.7612,-0.7606,-0.7602,-0.7614,-0.7631,-0.7621,-0.7608,-0.7606,-0.7606,-0.7606,-0.7605,-0.7605,-0.8231,-0.8212,-0.8165,-0.8125,-0.8091,-0.8055,-0.8031,-0.7992,-0.7956,-0.7904,-0.7878,-0.7834,-0.7784,-0.7712,-0.768,-0.7644,-0.7634,-0.7629,-0.7627,-0.7626,-0.7629,-0.7638,-0.7634,-0.7634,-0.7634,-0.7634,-0.7634,0,-0.8246,-0.8213,-0.8178,-0.8125,-0.8094,-0.807,-0.8025,-0.8,-0.7963,-0.792,-0.7882,-0.7831,-0.7786,-0.7735,-0.7687,-0.7667,-0.7652,-0.7656,-0.7656,-0.7649,-0.7641,-0.7649,-0.7669,-0.7669,-0.7669,-0.7669,-0.7669,-0.7669,-0.825,-0.8216,-0.8189,-0.8136,-0.8102,-0.806,-0.8037,-0.8002,-0.7968,-0.7913,-0.7876,-0.7843,-0.7796,-0.7744,-0.7701,-0.7686,-0.767,-0.7677,-0.7659,-0.7653,-0.765,-0.7647,-0.7654,-0.7675,-0.7675,-0.767,-0.767,-0.767]},{"header":{"parameterUnit":"m.s-1","parameterCategory":1,"la1":30.2991,"la2":30.254,"lo1":-89.0895,"lo2":-89.0444,"dy":0.0017,"dx":0.0017,"nx":28,"ny":28,"refTime":"2025-05-27T21:00:00:Z","depth":0,"parameterNumber":3,"parameterNumberName":"V-component_of_WINDS"},"data":[0,0,0,0,0,0,0,0,0,0,0,0,0,0,0,0,0,0,0,0,0,0,0,0,0,0,0,0,0,0,0,0,0,0,0,0,0,0,0,0,0,0,0,0,0,0,0,0,0,0,0,0,0,0,0,0,0,0,1.1852,1.1851,0,1.1755,1.1754,1.1753,1.1715,1.1715,1.1715,1.1716,1.1617,1.1614,1.1611,0,0,0,0,0,0,0,0,0,0,0,0,0,1.2004,1.2001,1.1852,1.1851,1.185,1.1755,1.1754,1.1753,1.1715,1.1715,1.1715,1.1716,1.1617,1.1614,1.1611,0,0,0,0,0,0,0,0,0,0,0,0,0,1.1926,1.2,1.1852,1.1819,1.1816,1.1756,1.1754,1.1752,1.1715,1.1715,1.1715,1.1716,1.1619,1.1614,1.161,1.1576,0,0,1.1597,1.1595,0,0,0,0,0,0,0,0,1.193,1.192,1.1825,1.1822,1.1817,1.1747,1.1771,1.1693,1.1715,1.1753,1.1716,1.1716,1.166,1.1652,1.1633,1.1571,1.1567,1.1597,1.1594,1.1592,1.1591,0,0,0,0,0,0,0,1.1936,1.1924,1.1814,1.1824,1.1819,1.1809,1.1799,1.1756,1.1705,1.175,1.1747,1.1736,1.1658,1.1637,1.1631,1.1566,1.1597,1.1593,1.159,1.1589,1.147,1.1469,0,0,0,0,0,0,1.1946,1.1929,1.1817,1.1811,1.1876,1.1806,1.1794,1.1769,1.1706,1.1696,1.1735,1.1734,1.1645,1.1636,1.1627,1.1582,1.1592,1.1588,1.1586,1.147,1.147,1.1469,0,0,0,0,0,0,1.195,1.1937,1.1821,1.1869,1.1853,1.1803,1.1776,1.1767,1.1747,1.1695,1.1686,1.1724,1.1645,1.1633,1.1589,1.1578,1.1586,1.1582,1.1471,1.147,1.1469,1.1492,0,0,0,0,0,0,1.1954,1.1938,1.1925,1.1869,1.1851,1.1784,1.1775,1.1765,1.174,1.1737,1.1682,1.1673,1.1644,1.1595,1.1584,1.1572,1.1579,1.1472,1.1471,1.147,1.1492,1.1492,1.1492,0,0,0,0,0,1.196,1.1936,1.1925,1.1911,1.1833,1.1784,1.1774,1.174,1.1739,1.1725,1.1691,1.1675,1.1581,1.1591,1.1579,1.1565,1.1472,1.1471,1.147,1.1492,1.1492,1.1492,0,0,0,0,0,0,1.1992,1.1928,1.1915,1.1872,1.1833,1.1778,1.1759,1.1742,1.1703,1.1702,1.1663,1.1651,1.1609,1.1583,1.1595,1.1528,1.1525,1.1522,1.1546,1.1546,1.1546,1.1553,1.1575,0,0,0,0,0,1.1994,1.1959,1.1905,1.1872,1.1854,1.181,1.1787,1.1764,1.1723,1.1707,1.167,1.1631,1.1592,1.1568,1.153,1.1488,1.1475,1.1472,1.1472,1.1473,1.1469,1.1444,1.1442,1.1465,1.1465,1.1465,0,0,1.1998,1.1958,1.1939,1.1877,1.1845,1.181,1.1796,1.176,1.1733,1.1701,1.1657,1.1629,1.1582,1.1539,1.1518,1.1515,1.146,1.1471,1.1472,1.1468,1.1443,1.144,1.1439,1.1464,1.1464,1.1464,0,0,1.1987,1.1954,1.1922,1.189,1.1841,1.1812,1.1804,1.1751,1.173,1.1685,1.1661,1.1628,1.1563,1.153,1.1505,1.1481,1.1464,1.147,1.1469,1.1445,1.1443,1.1442,1.1432,1.1429,1.1467,1.1467,1.1467,0,1.1998,1.1943,1.1908,1.1872,1.1845,1.1815,1.1782,1.1753,1.1694,1.1676,1.1675,1.1591,1.1558,1.1506,1.15,1.1481,1.147,1.1475,1.1447,1.1444,1.1442,1.1432,1.1429,1.1468,1.1468,1.1468,1.1468,0,1.1958,1.1921,1.1901,1.1845,1.1816,1.1782,1.1741,1.1716,1.1696,1.1667,1.1621,1.158,1.1532,1.1518,1.1499,1.1463,1.1463,1.1454,1.1451,1.1441,1.1431,1.1427,1.1469,1.1469,1.1469,1.1468,0,0,1.1965,1.1888,1.1882,1.1855,1.1799,1.1769,1.1733,1.1686,1.1665,1.1626,1.1594,1.1539,1.1531,1.1502,1.1479,1.1458,1.1439,1.1451,1.145,1.145,1.1396,1.1402,1.1398,1.1428,1.1427,1.1427,1.14,0,1.1945,1.1879,1.1846,1.1795,1.1759,1.173,1.1698,1.166,1.1632,1.1598,1.1567,1.1528,1.152,1.1502,1.148,1.1446,1.1428,1.1448,1.1398,1.1396,1.1409,1.1393,1.14,1.1376,1.1396,1.1395,1.1394,0,1.1913,1.1873,1.1818,1.1765,1.1748,1.1721,1.1675,1.1642,1.1598,1.1579,1.1547,1.1524,1.1484,1.1485,1.1429,1.1444,1.1421,1.1402,1.14,1.1393,1.1394,1.1385,1.1368,1.1364,1.1388,1.1389,1.1389,0,1.1922,1.1854,1.1812,1.1791,1.1728,1.1709,1.1682,1.1638,1.1611,1.1571,1.1553,1.1509,1.1485,1.1451,1.1416,1.142,1.1364,1.1361,1.1346,1.1347,1.1335,1.1336,1.1313,1.1323,1.1323,1.1323,1.1323,0,1.1903,1.187,1.1815,1.1789,1.1751,1.1713,1.1677,1.1648,1.1609,1.1576,1.1548,1.1519,1.1475,1.1439,1.1412,1.137,1.1359,1.1342,1.1335,1.1344,1.1346,1.1328,1.1328,1.1322,1.1322,1.1322,1.1322,0,1.1906,1.1868,1.182,1.1764,1.1749,1.1723,1.1675,1.1649,1.1619,1.1578,1.1566,1.1519,1.1476,1.1438,1.1381,1.1363,1.1319,1.1311,1.1334,1.133,1.1316,1.1317,1.128,1.1272,1.1288,1.1288,1.1288,0,1.1896,1.187,1.1811,1.1786,1.176,1.1722,1.1694,1.1656,1.1628,1.1575,1.1555,1.151,1.1471,1.1403,1.1364,1.132,1.131,1.13,1.1303,1.1312,1.1308,1.131,1.1306,1.1299,1.1299,1.1299,1.1299,0,1.1882,1.1864,1.1825,1.1779,1.1747,1.171,1.1671,1.1653,1.1608,1.1578,1.1533,1.1503,1.1444,1.1399,1.135,1.1322,1.1303,1.1299,1.1293,1.1301,1.1315,1.1306,1.1332,1.13,1.13,1.13,1.13,1.13,1.1877,1.1852,1.1806,1.1763,1.173,1.1694,1.1666,1.1633,1.1594,1.1543,1.1523,1.1477,1.1432,1.1365,1.1337,1.13,1.1296,1.1288,1.1286,1.1284,1.1285,1.1322,1.1291,1.1291,1.1291,1.1291,1.1291,0,1.186,1.1829,1.179,1.1737,1.1703,1.1688,1.1644,1.1617,1.1576,1.1536,1.1499,1.1446,1.1402,1.1359,1.1313,1.1291,1.1281,1.128,1.1281,1.1275,1.1291,1.13,1.1289,1.1289,1.1289,1.1289,1.1289,1.1289,1.1847,1.1804,1.178,1.1719,1.1688,1.1642,1.1619,1.1585,1.1553,1.1496,1.1459,1.1431,1.1389,1.1339,1.1298,1.1286,1.127,1.1271,1.1257,1.1273,1.1274,1.1274,1.1283,1.1268,1.1268,1.1244,1.1243,1.1243]}]]